Time,TemperatureF,DewpointF,PressureIn,WindDirection,WindDirectionDegrees,WindSpeedMPH,WindSpeedGustMPH,Humidity,HourlyPrecipIn,Conditions,Clouds,dailyrainin,SoftwareType,DateUTC
2013-11-30 00:01:00,56.1,38.8,30.24,NE,45,0.0,0.0,52,0.00,,---,0.00,VWS V14.01,2013-11-30 05:01:00,
2013-11-30 00:06:00,56.1,38.8,30.24,NW,326,0.0,0.0,52,0.00,,---,0.00,VWS V14.01,2013-11-30 05:06:00,
2013-11-30 00:11:00,55.9,38.6,30.24,North,2,0.0,0.0,52,0.00,,---,0.00,VWS V14.01,2013-11-30 05:11:00,
2013-11-30 00:16:00,56.1,38.8,30.24,NE,46,0.0,0.0,52,0.00,,---,0.00,VWS V14.01,2013-11-30 05:16:00,
2013-11-30 00:21:00,56.1,38.8,30.24,North,0,0.0,0.0,52,0.00,,---,0.00,VWS V14.01,2013-11-30 05:21:00,
2013-11-30 00:26:00,56.1,38.8,30.24,NNE,24,2.7,3.6,52,0.00,,---,0.00,VWS V14.01,2013-11-30 05:26:00,
2013-11-30 00:31:00,56.1,38.8,30.24,NNE,18,0.0,0.0,52,0.00,,---,0.00,VWS V14.01,2013-11-30 05:31:00,
2013-11-30 00:36:00,56.1,39.2,30.24,ENE,73,3.1,3.1,53,0.00,,---,0.00,VWS V14.01,2013-11-30 05:36:00,
2013-11-30 00:41:00,55.9,39.1,30.24,East,92,0.0,0.0,53,0.00,,---,0.00,VWS V14.01,2013-11-30 05:41:00,
2013-11-30 00:46:00,55.9,39.5,30.24,SSW,195,0.0,0.0,54,0.00,,---,0.00,VWS V14.01,2013-11-30 05:46:00,
2013-11-30 00:51:00,55.8,38.9,30.24,NW,312,2.2,2.2,53,0.00,,---,0.00,VWS V14.01,2013-11-30 05:51:00,
2013-11-30 00:56:00,55.8,39.4,30.24,ENE,58,0.0,0.0,54,0.00,,---,0.00,VWS V14.01,2013-11-30 05:56:00,
2013-11-30 01:01:00,55.6,38.7,30.24,NNE,29,0.0,0.0,53,0.00,,---,0.00,VWS V14.01,2013-11-30 06:01:00,
2013-11-30 01:06:00,55.4,38.6,30.21,ENE,78,0.0,0.0,53,0.00,,---,0.00,VWS V14.01,2013-11-30 06:06:00,
2013-11-30 01:11:00,55.2,38.4,30.21,NE,51,3.1,3.1,53,0.00,,---,0.00,VWS V14.01,2013-11-30 06:11:00,
2013-11-30 01:16:00,55.0,38.7,30.21,NE,46,0.0,0.0,54,0.00,,---,0.00,VWS V14.01,2013-11-30 06:16:00,
2013-11-30 01:21:00,55.0,38.2,30.21,NNE,21,0.0,0.0,53,0.00,,---,0.00,VWS V14.01,2013-11-30 06:21:00,
2013-11-30 01:26:00,54.9,38.1,30.21,NNW,330,0.0,0.0,53,0.00,,---,0.00,VWS V14.01,2013-11-30 06:26:00,
2013-11-30 01:31:00,54.7,38.4,30.21,ENE,57,0.0,0.0,54,0.00,,---,0.00,VWS V14.01,2013-11-30 06:31:00,
2013-11-30 01:36:00,54.5,38.2,30.21,NNW,341,0.0,0.0,54,0.00,,---,0.00,VWS V14.01,2013-11-30 06:36:00,
2013-11-30 01:41:00,54.5,38.2,30.21,NE,46,0.0,0.0,54,0.00,,---,0.00,VWS V14.01,2013-11-30 06:41:00,
2013-11-30 01:46:00,54.5,38.2,30.21,SSW,213,0.0,0.0,54,0.00,,---,0.00,VWS V14.01,2013-11-30 06:46:00,
2013-11-30 01:51:00,54.3,38.5,30.21,NE,42,0.0,0.0,55,0.00,,---,0.00,VWS V14.01,2013-11-30 06:51:00,
2013-11-30 01:56:00,54.3,38.5,30.21,NNE,27,0.0,0.0,55,0.00,,---,0.00,VWS V14.01,2013-11-30 06:56:00,
2013-11-30 02:01:00,54.1,38.3,30.21,NNE,26,0.0,0.0,55,0.00,,---,0.00,VWS V14.01,2013-11-30 07:01:00,
2013-11-30 02:06:00,54.1,38.3,30.21,NNW,335,0.0,0.0,55,0.00,,---,0.00,VWS V14.01,2013-11-30 07:06:00,
2013-11-30 02:11:00,54.0,38.2,30.21,NNE,33,3.6,3.6,55,0.00,,---,0.00,VWS V14.01,2013-11-30 07:11:00,
2013-11-30 02:16:00,54.0,38.2,30.21,NNE,20,0.0,0.0,55,0.00,,---,0.00,VWS V14.01,2013-11-30 07:16:00,
2013-11-30 02:21:00,54.0,38.2,30.21,NNE,28,0.0,2.2,55,0.00,,---,0.00,VWS V14.01,2013-11-30 07:21:00,
2013-11-30 02:26:00,54.0,38.2,30.21,NNE,20,2.2,3.6,55,0.00,,---,0.00,VWS V14.01,2013-11-30 07:26:00,
2013-11-30 02:31:00,54.0,38.6,30.21,NE,46,0.0,4.0,56,0.00,,---,0.00,VWS V14.01,2013-11-30 07:31:00,
2013-11-30 02:36:00,54.1,38.8,30.21,NW,310,4.0,4.9,56,0.00,,---,0.00,VWS V14.01,2013-11-30 07:36:00,
2013-11-30 02:41:00,54.3,39.0,30.21,SSE,161,0.0,0.0,56,0.00,,---,0.00,VWS V14.01,2013-11-30 07:41:00,
2013-11-30 02:46:00,54.3,39.0,30.21,ESE,106,0.0,0.0,56,0.00,,---,0.00,VWS V14.01,2013-11-30 07:46:00,
2013-11-30 02:51:00,54.5,39.1,30.21,ENE,77,0.0,0.0,56,0.00,,---,0.00,VWS V14.01,2013-11-30 07:51:00,
2013-11-30 02:56:00,54.5,39.1,30.21,ESE,110,0.0,0.0,56,0.00,,---,0.00,VWS V14.01,2013-11-30 07:56:00,
2013-11-30 03:01:00,54.7,39.8,30.21,NE,47,3.6,3.6,57,0.00,,---,0.00,VWS V14.01,2013-11-30 08:01:00,
2013-11-30 03:06:00,55.0,39.7,30.18,SW,232,0.0,0.0,56,0.00,,---,0.00,VWS V14.01,2013-11-30 08:06:00,
2013-11-30 03:11:00,55.0,39.7,30.18,North,357,3.6,5.8,56,0.00,,---,0.00,VWS V14.01,2013-11-30 08:11:00,
2013-11-30 03:16:00,55.2,39.8,30.18,NW,313,0.0,0.0,56,0.00,,---,0.00,VWS V14.01,2013-11-30 08:16:00,
2013-11-30 03:21:00,55.2,39.8,30.18,NNE,25,0.0,0.0,56,0.00,,---,0.00,VWS V14.01,2013-11-30 08:21:00,
2013-11-30 03:26:00,55.2,39.8,30.18,NNE,19,0.0,0.0,56,0.00,,---,0.00,VWS V14.01,2013-11-30 08:26:00,
2013-11-30 03:31:00,55.2,39.8,30.18,NNE,19,0.0,0.0,56,0.00,,---,0.00,VWS V14.01,2013-11-30 08:31:00,
2013-11-30 03:36:00,55.2,39.8,30.18,ENE,65,0.0,0.0,56,0.00,,---,0.00,VWS V14.01,2013-11-30 08:36:00,
2013-11-30 03:41:00,55.2,40.3,30.18,North,357,3.6,3.6,57,0.00,,---,0.00,VWS V14.01,2013-11-30 08:41:00,
2013-11-30 03:46:00,55.4,40.0,30.18,NE,47,0.0,0.0,56,0.00,,---,0.00,VWS V14.01,2013-11-30 08:46:00,
2013-11-30 03:51:00,55.4,40.0,30.18,NNE,29,0.0,0.0,56,0.00,,---,0.00,VWS V14.01,2013-11-30 08:51:00,
2013-11-30 03:56:00,55.4,40.0,30.18,North,9,0.0,0.0,56,0.00,,---,0.00,VWS V14.01,2013-11-30 08:56:00,
2013-11-30 04:01:00,55.6,40.2,30.18,NE,46,0.0,2.2,56,0.00,,---,0.00,VWS V14.01,2013-11-30 09:01:00,
2013-11-30 04:06:00,55.6,40.2,30.18,North,1,3.1,3.1,56,0.00,,---,0.00,VWS V14.01,2013-11-30 09:06:00,
2013-11-30 04:11:00,55.4,40.4,30.18,WNW,299,2.2,3.1,57,0.00,,---,0.00,VWS V14.01,2013-11-30 09:11:00,
2013-11-30 04:16:00,55.2,40.3,30.18,ENE,61,3.1,5.4,57,0.00,,---,0.00,VWS V14.01,2013-11-30 09:16:00,
2013-11-30 04:21:00,55.0,40.1,30.18,NNE,29,4.0,4.9,57,0.00,,---,0.00,VWS V14.01,2013-11-30 09:21:00,
2013-11-30 04:26:00,55.0,40.1,30.18,SW,216,0.0,2.2,57,0.00,,---,0.00,VWS V14.01,2013-11-30 09:26:00,
2013-11-30 04:31:00,54.9,39.9,30.18,NNE,30,0.0,0.0,57,0.00,,---,0.00,VWS V14.01,2013-11-30 09:31:00,
2013-11-30 04:37:00,54.9,39.9,30.18,SSW,208,0.0,0.0,57,0.00,,---,0.00,VWS V14.01,2013-11-30 09:37:00,
2013-11-30 04:42:00,54.7,39.8,30.18,SSE,167,0.0,0.0,57,0.00,,---,0.00,VWS V14.01,2013-11-30 09:42:00,
2013-11-30 04:47:00,54.7,39.8,30.18,NW,307,0.0,0.0,57,0.00,,---,0.00,VWS V14.01,2013-11-30 09:47:00,
2013-11-30 04:52:00,54.7,40.2,30.18,South,176,0.0,0.0,58,0.00,,---,0.00,VWS V14.01,2013-11-30 09:52:00,
2013-11-30 04:57:00,54.7,39.8,30.18,NNW,330,0.0,2.7,57,0.00,,---,0.00,VWS V14.01,2013-11-30 09:57:00,
2013-11-30 05:02:00,54.7,40.2,30.18,WNW,298,0.0,0.0,58,0.00,,---,0.00,VWS V14.01,2013-11-30 10:02:00,
2013-11-30 05:07:00,54.7,40.2,30.18,SW,225,0.0,0.0,58,0.00,,---,0.00,VWS V14.01,2013-11-30 10:07:00,
2013-11-30 05:12:00,54.7,40.2,30.18,NNE,29,0.0,0.0,58,0.00,,---,0.00,VWS V14.01,2013-11-30 10:12:00,
2013-11-30 05:17:00,54.7,40.2,30.18,NNE,29,0.0,0.0,58,0.00,,---,0.00,VWS V14.01,2013-11-30 10:17:00,
2013-11-30 05:22:00,54.7,40.2,30.18,NE,37,2.2,2.2,58,0.00,,---,0.00,VWS V14.01,2013-11-30 10:22:00,
2013-11-30 05:27:00,54.7,40.7,30.18,NW,320,0.0,3.6,59,0.00,,---,0.00,VWS V14.01,2013-11-30 10:27:00,
2013-11-30 05:32:00,54.7,40.2,30.18,NNW,341,0.0,0.0,58,0.00,,---,0.00,VWS V14.01,2013-11-30 10:32:00,
2013-11-30 05:37:00,54.9,40.8,30.18,West,275,0.0,0.0,59,0.00,,---,0.00,VWS V14.01,2013-11-30 10:37:00,
2013-11-30 05:42:00,54.9,40.4,30.18,NE,52,0.0,0.0,58,0.00,,---,0.00,VWS V14.01,2013-11-30 10:42:00,
2013-11-30 05:47:00,55.0,40.5,30.18,North,350,0.0,2.7,58,0.00,,---,0.00,VWS V14.01,2013-11-30 10:47:00,
2013-11-30 05:52:00,55.2,41.2,30.18,NNE,26,0.0,0.0,59,0.00,,---,0.00,VWS V14.01,2013-11-30 10:52:00,
2013-11-30 05:57:00,55.4,40.9,30.18,West,265,0.0,0.0,58,0.00,,---,0.00,VWS V14.01,2013-11-30 10:57:00,
2013-11-30 06:02:00,55.4,40.9,30.18,ENE,59,0.0,0.0,58,0.00,,---,0.00,VWS V14.01,2013-11-30 11:02:00,
2013-11-30 06:07:00,55.6,41.0,30.18,North,4,0.0,0.0,58,0.00,,---,0.00,VWS V14.01,2013-11-30 11:07:00,
2013-11-30 06:12:00,55.8,41.7,30.18,NE,54,0.0,0.0,59,0.00,,---,0.00,VWS V14.01,2013-11-30 11:12:00,
2013-11-30 06:17:00,55.8,41.7,30.18,South,190,0.0,0.0,59,0.00,,---,0.00,VWS V14.01,2013-11-30 11:17:00,
2013-11-30 06:22:00,55.9,41.8,30.21,NE,46,0.0,0.0,59,0.00,,---,0.00,VWS V14.01,2013-11-30 11:22:00,
2013-11-30 06:27:00,56.1,42.0,30.21,East,79,0.0,0.0,59,0.00,,---,0.00,VWS V14.01,2013-11-30 11:27:00,
2013-11-30 06:32:00,56.3,42.2,30.21,SSW,208,0.0,0.0,59,0.00,,---,0.00,VWS V14.01,2013-11-30 11:32:00,
2013-11-30 06:37:00,56.3,42.6,30.21,East,93,0.0,0.0,60,0.00,,---,0.00,VWS V14.01,2013-11-30 11:37:00,
2013-11-30 06:42:00,56.5,42.8,30.21,East,79,2.7,3.6,60,0.00,,---,0.00,VWS V14.01,2013-11-30 11:42:00,
2013-11-30 06:47:00,56.7,44.2,30.21,NW,308,0.0,0.0,63,0.00,,---,0.00,VWS V14.01,2013-11-30 11:47:00,
2013-11-30 06:52:00,56.8,44.4,30.21,ESE,108,0.0,0.0,63,0.00,,---,0.00,VWS V14.01,2013-11-30 11:52:00,
2013-11-30 06:57:00,56.8,44.0,30.21,NNE,16,0.0,3.6,62,0.00,,---,0.00,VWS V14.01,2013-11-30 11:57:00,
2013-11-30 07:02:00,56.8,44.0,30.21,WNW,303,0.0,3.1,62,0.00,,---,0.00,VWS V14.01,2013-11-30 12:02:00,
2013-11-30 07:07:00,57.0,44.1,30.21,NW,319,0.0,0.0,62,0.00,,---,0.00,VWS V14.01,2013-11-30 12:07:00,
2013-11-30 07:12:00,57.0,44.6,30.21,NE,38,5.8,6.3,63,0.00,,---,0.00,VWS V14.01,2013-11-30 12:12:00,
2013-11-30 07:17:00,57.2,44.7,30.21,North,0,2.7,2.7,63,0.00,,---,0.00,VWS V14.01,2013-11-30 12:17:00,
2013-11-30 07:22:00,57.2,45.2,30.21,North,0,2.7,3.6,64,0.00,,---,0.00,VWS V14.01,2013-11-30 12:22:00,
2013-11-30 07:27:00,57.2,44.7,30.21,NE,36,0.0,3.6,63,0.00,,---,0.00,VWS V14.01,2013-11-30 12:27:00,
2013-11-30 07:32:00,57.2,44.7,30.21,NNW,343,5.4,5.4,63,0.00,,---,0.00,VWS V14.01,2013-11-30 12:32:00,
2013-11-30 07:37:00,57.2,44.7,30.18,ENE,64,0.0,0.0,63,0.00,,---,0.00,VWS V14.01,2013-11-30 12:37:00,
2013-11-30 07:42:00,57.2,45.2,30.18,West,265,2.7,3.6,64,0.00,,---,0.00,VWS V14.01,2013-11-30 12:42:00,
2013-11-30 07:47:00,57.4,45.7,30.18,NNE,32,3.6,4.0,65,0.00,,---,0.00,VWS V14.01,2013-11-30 12:47:00,
2013-11-30 07:52:00,57.6,45.9,30.21,North,8,0.0,2.7,65,0.00,,---,0.00,VWS V14.01,2013-11-30 12:52:00,
2013-11-30 07:57:00,57.7,46.1,30.21,NNW,339,2.7,6.3,65,0.00,,---,0.00,VWS V14.01,2013-11-30 12:57:00,
2013-11-30 08:02:00,57.7,46.1,30.21,East,98,3.6,3.6,65,0.00,,---,0.00,VWS V14.01,2013-11-30 13:02:00,
2013-11-30 08:07:00,57.9,46.2,30.21,SE,131,0.0,0.0,65,0.00,,---,0.00,VWS V14.01,2013-11-30 13:07:00,
2013-11-30 08:12:00,58.1,46.4,30.21,NNW,340,5.8,5.8,65,0.00,,---,0.00,VWS V14.01,2013-11-30 13:12:00,
2013-11-30 08:17:00,58.3,47.0,30.21,ENE,78,2.2,2.2,66,0.00,,---,0.00,VWS V14.01,2013-11-30 13:17:00,
2013-11-30 08:22:00,58.6,47.3,30.21,NE,47,6.3,6.3,66,0.00,,---,0.00,VWS V14.01,2013-11-30 13:22:00,
2013-11-30 08:27:00,58.8,47.9,30.21,North,7,2.2,2.7,67,0.00,,---,0.00,VWS V14.01,2013-11-30 13:27:00,
2013-11-30 08:32:00,59.0,48.1,30.21,NNE,20,4.0,4.0,67,0.00,,---,0.00,VWS V14.01,2013-11-30 13:32:00,
2013-11-30 08:37:00,59.2,48.2,30.21,North,0,0.0,0.0,67,0.00,,---,0.00,VWS V14.01,2013-11-30 13:37:00,
2013-11-30 08:42:00,59.2,48.2,30.21,SE,145,0.0,0.0,67,0.00,,---,0.00,VWS V14.01,2013-11-30 13:42:00,
2013-11-30 08:47:00,59.4,48.8,30.21,ENE,62,3.6,3.6,68,0.00,,---,0.00,VWS V14.01,2013-11-30 13:47:00,
2013-11-30 08:52:00,59.5,49.0,30.21,NNW,329,2.7,4.9,68,0.00,,---,0.00,VWS V14.01,2013-11-30 13:52:00,
2013-11-30 08:57:00,59.5,48.6,30.21,ENE,70,4.9,5.8,67,0.00,,---,0.00,VWS V14.01,2013-11-30 13:57:00,
2013-11-30 09:02:00,59.7,49.2,30.21,NNE,30,3.1,3.1,68,0.00,,---,0.00,VWS V14.01,2013-11-30 14:02:00,
2013-11-30 09:07:00,59.7,49.2,30.24,North,10,0.0,2.7,68,0.00,,---,0.00,VWS V14.01,2013-11-30 14:07:00,
2013-11-30 09:12:00,59.9,49.3,30.24,NE,48,0.0,2.2,68,0.00,,---,0.00,VWS V14.01,2013-11-30 14:12:00,
2013-11-30 09:17:00,60.1,49.5,30.24,NNE,33,3.6,3.6,68,0.00,,---,0.00,VWS V14.01,2013-11-30 14:17:00,
2013-11-30 09:22:00,60.1,49.1,30.24,ESE,115,2.2,2.7,67,0.00,,---,0.00,VWS V14.01,2013-11-30 14:22:00,
2013-11-30 09:27:00,60.3,49.7,30.24,NNW,340,2.2,3.1,68,0.00,,---,0.00,VWS V14.01,2013-11-30 14:27:00,
2013-11-30 09:32:00,60.4,49.4,30.24,SE,140,0.0,0.0,67,0.00,,---,0.00,VWS V14.01,2013-11-30 14:32:00,
2013-11-30 09:37:00,60.6,50.0,30.24,ESE,116,2.2,4.0,68,0.00,,---,0.00,VWS V14.01,2013-11-30 14:37:00,
2013-11-30 09:42:00,60.8,49.8,30.24,NE,39,0.0,0.0,67,0.00,,---,0.00,VWS V14.01,2013-11-30 14:42:00,
2013-11-30 09:47:00,61.0,50.0,30.24,NE,39,2.2,3.1,67,0.00,,---,0.00,VWS V14.01,2013-11-30 14:47:00,
2013-11-30 09:52:00,61.2,50.1,30.24,ENE,59,2.7,3.6,67,0.00,,---,0.00,VWS V14.01,2013-11-30 14:52:00,
2013-11-30 09:57:00,61.2,49.7,30.24,NNE,29,5.4,8.1,66,0.00,,---,0.00,VWS V14.01,2013-11-30 14:57:00,
2013-11-30 10:02:00,61.2,49.7,30.24,North,1,4.0,4.0,66,0.00,,---,0.00,VWS V14.01,2013-11-30 15:02:00,
2013-11-30 10:07:00,61.3,49.9,30.24,North,3,3.6,3.6,66,0.00,,---,0.00,VWS V14.01,2013-11-30 15:07:00,
2013-11-30 10:12:00,61.3,49.9,30.24,NNW,341,2.7,2.7,66,0.00,,---,0.00,VWS V14.01,2013-11-30 15:12:00,
2013-11-30 10:17:00,61.2,49.3,30.24,North,357,5.4,5.4,65,0.00,,---,0.00,VWS V14.01,2013-11-30 15:17:00,
2013-11-30 10:22:00,61.0,49.2,30.24,NNE,18,2.7,2.7,65,0.00,,---,0.00,VWS V14.01,2013-11-30 15:22:00,
2013-11-30 10:27:00,61.0,49.2,30.24,North,357,3.6,4.0,65,0.00,,---,0.00,VWS V14.01,2013-11-30 15:27:00,
2013-11-30 10:32:00,61.0,49.2,30.24,NNE,12,3.1,3.6,65,0.00,,---,0.00,VWS V14.01,2013-11-30 15:32:00,
2013-11-30 10:37:00,61.0,49.2,30.24,NNE,33,2.2,2.7,65,0.00,,---,0.00,VWS V14.01,2013-11-30 15:37:00,
2013-11-30 10:42:00,61.0,49.2,30.24,North,10,5.8,8.1,65,0.00,,---,0.00,VWS V14.01,2013-11-30 15:42:00,
2013-11-30 10:47:00,61.0,49.2,30.24,NE,47,4.0,5.4,65,0.00,,---,0.00,VWS V14.01,2013-11-30 15:47:00,
2013-11-30 10:52:00,61.0,49.2,30.24,SSE,152,0.0,0.0,65,0.00,,---,0.00,VWS V14.01,2013-11-30 15:52:00,
2013-11-30 10:57:00,61.0,49.2,30.24,NE,42,0.0,0.0,65,0.00,,---,0.00,VWS V14.01,2013-11-30 15:57:00,
2013-11-30 11:02:00,61.2,49.3,30.24,ESE,105,5.4,5.4,65,0.00,,---,0.00,VWS V14.01,2013-11-30 16:02:00,
2013-11-30 11:07:00,61.2,49.3,30.24,NE,35,5.8,5.8,65,0.00,,---,0.00,VWS V14.01,2013-11-30 16:07:00,
2013-11-30 11:12:00,61.2,49.3,30.24,NE,45,3.1,3.6,65,0.00,,---,0.00,VWS V14.01,2013-11-30 16:12:00,
2013-11-30 11:17:00,61.0,49.5,30.24,SW,234,0.0,5.4,66,0.00,,---,0.00,VWS V14.01,2013-11-30 16:17:00,
2013-11-30 11:22:00,61.2,49.3,30.24,North,4,2.2,4.0,65,0.00,,---,0.00,VWS V14.01,2013-11-30 16:22:00,
2013-11-30 11:27:00,61.2,49.3,30.24,North,357,0.0,0.0,65,0.00,,---,0.00,VWS V14.01,2013-11-30 16:27:00,
2013-11-30 11:32:00,61.3,49.9,30.24,North,353,0.0,0.0,66,0.00,,---,0.00,VWS V14.01,2013-11-30 16:32:00,
2013-11-30 11:37:00,61.5,50.1,30.21,East,88,0.0,0.0,66,0.00,,---,0.00,VWS V14.01,2013-11-30 16:37:00,
2013-11-30 11:42:00,61.5,50.1,30.21,East,83,5.4,5.4,66,0.00,,---,0.00,VWS V14.01,2013-11-30 16:42:00,
2013-11-30 11:47:00,61.7,50.2,30.21,ENE,63,5.8,6.3,66,0.00,,---,0.00,VWS V14.01,2013-11-30 16:47:00,
2013-11-30 11:52:00,61.7,50.2,30.21,West,261,3.1,3.1,66,0.00,,---,0.00,VWS V14.01,2013-11-30 16:52:00,
2013-11-30 11:57:00,61.9,50.4,30.21,NE,43,2.7,2.7,66,0.00,,---,0.00,VWS V14.01,2013-11-30 16:57:00,
2013-11-30 12:02:00,61.9,50.4,30.21,NNE,14,4.5,4.9,66,0.00,,---,0.00,VWS V14.01,2013-11-30 17:02:00,
2013-11-30 12:07:00,62.1,50.6,30.21,North,0,0.0,0.0,66,0.00,,---,0.00,VWS V14.01,2013-11-30 17:07:00,
2013-11-30 12:12:00,62.2,50.8,30.21,North,0,5.8,6.3,66,0.00,,---,0.00,VWS V14.01,2013-11-30 17:12:00,
2013-11-30 12:17:00,62.2,50.3,30.21,SSE,151,3.1,3.6,65,0.00,,---,0.00,VWS V14.01,2013-11-30 17:17:00,
2013-11-30 12:22:00,62.6,50.7,30.21,SE,133,2.2,3.6,65,0.00,,---,0.00,VWS V14.01,2013-11-30 17:22:00,
2013-11-30 12:27:00,62.8,50.8,30.21,West,274,0.0,3.1,65,0.00,,---,0.00,VWS V14.01,2013-11-30 17:27:00,
2013-11-30 12:32:00,63.0,51.0,30.21,WSW,245,3.6,7.2,65,0.00,,---,0.00,VWS V14.01,2013-11-30 17:32:00,
2013-11-30 12:37:00,62.8,50.4,30.21,East,82,4.9,4.9,64,0.00,,---,0.00,VWS V14.01,2013-11-30 17:37:00,
2013-11-30 12:43:00,63.0,50.6,30.21,North,357,5.8,5.8,64,0.00,,---,0.00,VWS V14.01,2013-11-30 17:43:00,
2013-11-30 12:48:00,63.0,50.6,30.21,NNW,345,2.7,4.0,64,0.00,,---,0.00,VWS V14.01,2013-11-30 17:48:00,
2013-11-30 12:53:00,63.1,50.8,30.21,ESE,109,0.0,2.7,64,0.00,,---,0.00,VWS V14.01,2013-11-30 17:53:00,
2013-11-30 12:58:00,63.1,50.8,30.21,NNE,27,4.0,4.0,64,0.00,,---,0.00,VWS V14.01,2013-11-30 17:58:00,
2013-11-30 13:03:00,63.0,50.6,30.18,NE,47,0.0,0.0,64,0.00,,---,0.00,VWS V14.01,2013-11-30 18:03:00,
2013-11-30 13:08:00,63.0,50.6,30.18,ENE,60,0.0,2.7,64,0.00,,---,0.00,VWS V14.01,2013-11-30 18:08:00,
2013-11-30 13:13:00,63.1,50.8,30.18,SE,125,2.7,6.3,64,0.00,,---,0.00,VWS V14.01,2013-11-30 18:13:00,
2013-11-30 13:18:00,63.1,50.8,30.18,ENE,73,0.0,0.0,64,0.00,,---,0.00,VWS V14.01,2013-11-30 18:18:00,
2013-11-30 13:23:00,63.1,50.8,30.18,NNE,23,4.9,4.9,64,0.00,,---,0.00,VWS V14.01,2013-11-30 18:23:00,
2013-11-30 13:28:00,63.3,50.5,30.18,ENE,66,3.1,4.9,63,0.00,,---,0.00,VWS V14.01,2013-11-30 18:28:00,
2013-11-30 13:33:00,63.3,50.5,30.18,NE,36,2.2,2.7,63,0.00,,---,0.00,VWS V14.01,2013-11-30 18:33:00,
2013-11-30 13:38:00,63.5,50.7,30.18,WNW,298,0.0,0.0,63,0.00,,---,0.00,VWS V14.01,2013-11-30 18:38:00,
2013-11-30 13:43:00,63.5,50.7,30.18,North,9,2.2,2.2,63,0.00,,---,0.00,VWS V14.01,2013-11-30 18:43:00,
2013-11-30 13:48:00,63.7,50.9,30.18,ENE,63,3.1,3.1,63,0.00,,---,0.00,VWS V14.01,2013-11-30 18:48:00,
2013-11-30 13:53:00,63.9,51.0,30.18,NE,36,6.3,6.3,63,0.00,,---,0.00,VWS V14.01,2013-11-30 18:53:00,
2013-11-30 13:58:00,63.9,50.6,30.18,NNE,28,2.7,5.8,62,0.00,,---,0.00,VWS V14.01,2013-11-30 18:58:00,
2013-11-30 14:03:00,64.0,50.8,30.18,ESE,114,0.0,0.0,62,0.00,,---,0.00,VWS V14.01,2013-11-30 19:03:00,
2013-11-30 14:08:00,64.4,50.7,30.18,ESE,102,3.1,3.6,61,0.00,,---,0.00,VWS V14.01,2013-11-30 19:08:00,
2013-11-30 14:13:00,64.4,50.2,30.18,ENE,61,2.2,4.9,60,0.00,,---,0.00,VWS V14.01,2013-11-30 19:13:00,
2013-11-30 14:18:00,64.4,49.8,30.18,NNE,18,3.6,3.6,59,0.00,,---,0.00,VWS V14.01,2013-11-30 19:18:00,
2013-11-30 14:23:00,64.4,49.3,30.18,ESE,106,3.1,3.1,58,0.00,,---,0.00,VWS V14.01,2013-11-30 19:23:00,
2013-11-30 14:28:00,64.4,49.8,30.18,NNE,27,2.2,3.1,59,0.00,,---,0.00,VWS V14.01,2013-11-30 19:28:00,
2013-11-30 14:33:00,64.4,49.8,30.15,NE,41,2.7,7.2,59,0.00,,---,0.00,VWS V14.01,2013-11-30 19:33:00,
2013-11-30 14:38:00,64.2,49.6,30.15,NW,304,2.7,6.3,59,0.00,,---,0.00,VWS V14.01,2013-11-30 19:38:00,
2013-11-30 14:43:00,64.0,49.0,30.15,NW,322,2.7,2.7,58,0.00,,---,0.00,VWS V14.01,2013-11-30 19:43:00,
2013-11-30 14:48:00,63.9,49.3,30.18,NE,47,5.8,5.8,59,0.00,,---,0.00,VWS V14.01,2013-11-30 19:48:00,
2013-11-30 14:53:00,63.7,49.1,30.18,ENE,67,0.0,0.0,59,0.00,,---,0.00,VWS V14.01,2013-11-30 19:53:00,
2013-11-30 14:58:00,63.7,49.1,30.18,ESE,117,4.0,4.0,59,0.00,,---,0.00,VWS V14.01,2013-11-30 19:58:00,
2013-11-30 15:03:00,63.5,48.9,30.18,ENE,57,0.0,0.0,59,0.00,,---,0.00,VWS V14.01,2013-11-30 20:03:00,
2013-11-30 15:08:00,63.3,48.8,30.18,ENE,73,2.7,3.1,59,0.00,,---,0.00,VWS V14.01,2013-11-30 20:08:00,
2013-11-30 15:13:00,63.1,48.6,30.18,North,6,4.0,4.5,59,0.00,,---,0.00,VWS V14.01,2013-11-30 20:13:00,
2013-11-30 15:18:00,62.8,48.3,30.18,ENE,68,3.1,3.1,59,0.00,,---,0.00,VWS V14.01,2013-11-30 20:18:00,
2013-11-30 15:23:00,62.6,48.1,30.18,North,357,0.0,0.0,59,0.00,,---,0.00,VWS V14.01,2013-11-30 20:23:00,
2013-11-30 15:28:00,62.4,48.4,30.18,North,0,3.1,3.1,60,0.00,,---,0.00,VWS V14.01,2013-11-30 20:28:00,
2013-11-30 15:33:00,62.2,48.2,30.18,South,172,2.7,2.7,60,0.00,,---,0.00,VWS V14.01,2013-11-30 20:33:00,
2013-11-30 15:38:00,61.9,47.9,30.18,NE,51,4.9,4.9,60,0.00,,---,0.00,VWS V14.01,2013-11-30 20:38:00,
2013-11-30 15:43:00,61.7,47.7,30.18,ESE,106,2.2,2.2,60,0.00,,---,0.00,VWS V14.01,2013-11-30 20:43:00,
2013-11-30 15:48:00,61.5,48.0,30.18,North,0,3.6,4.9,61,0.00,,---,0.00,VWS V14.01,2013-11-30 20:48:00,
2013-11-30 15:53:00,61.5,48.0,30.18,NE,48,3.1,3.1,61,0.00,,---,0.00,VWS V14.01,2013-11-30 20:53:00,
2013-11-30 15:58:00,61.3,47.8,30.18,ENE,77,0.0,3.1,61,0.00,,---,0.00,VWS V14.01,2013-11-30 20:58:00,
2013-11-30 16:03:00,61.3,47.8,30.18,NE,46,3.1,3.1,61,0.00,,---,0.00,VWS V14.01,2013-11-30 21:03:00,
2013-11-30 16:08:00,61.2,47.6,30.18,North,9,0.0,3.6,61,0.00,,---,0.00,VWS V14.01,2013-11-30 21:08:00,
2013-11-30 16:13:00,61.0,47.9,30.18,WNW,284,2.7,4.9,62,0.00,,---,0.00,VWS V14.01,2013-11-30 21:13:00,
2013-11-30 16:18:00,60.8,47.3,30.18,NE,47,3.6,4.0,61,0.00,,---,0.00,VWS V14.01,2013-11-30 21:18:00,
2013-11-30 16:23:00,60.6,47.5,30.18,NNE,27,3.6,5.4,62,0.00,,---,0.00,VWS V14.01,2013-11-30 21:23:00,
2013-11-30 16:28:00,60.6,47.5,30.18,ENE,70,2.7,4.0,62,0.00,,---,0.00,VWS V14.01,2013-11-30 21:28:00,
2013-11-30 16:33:00,60.4,47.4,30.18,SE,143,3.6,4.5,62,0.00,,---,0.00,VWS V14.01,2013-11-30 21:33:00,
2013-11-30 16:38:00,60.3,47.6,30.18,ENE,70,0.0,3.1,63,0.00,,---,0.00,VWS V14.01,2013-11-30 21:38:00,
2013-11-30 16:43:00,60.1,47.5,30.18,East,93,2.2,6.3,63,0.00,,---,0.00,VWS V14.01,2013-11-30 21:43:00,
2013-11-30 16:48:00,59.9,47.3,30.18,East,88,2.7,4.0,63,0.00,,---,0.00,VWS V14.01,2013-11-30 21:48:00,
2013-11-30 16:53:00,59.7,47.1,30.18,NNW,335,4.0,4.0,63,0.00,,---,0.00,VWS V14.01,2013-11-30 21:53:00,
2013-11-30 16:58:00,59.5,47.0,30.18,NNE,25,0.0,0.0,63,0.00,,---,0.00,VWS V14.01,2013-11-30 21:58:00,
2013-11-30 17:04:00,59.4,46.8,30.18,East,80,2.7,2.7,63,0.00,,---,0.00,VWS V14.01,2013-11-30 22:04:00,
2013-11-30 17:09:00,59.2,46.6,30.18,NE,38,3.1,6.3,63,0.00,,---,0.00,VWS V14.01,2013-11-30 22:09:00,
2013-11-30 17:14:00,59.0,46.4,30.18,ENE,57,0.0,3.6,63,0.00,,---,0.00,VWS V14.01,2013-11-30 22:14:00,
2013-11-30 17:19:00,58.8,46.7,30.18,ENE,78,3.1,5.4,64,0.00,,---,0.00,VWS V14.01,2013-11-30 22:19:00,
2013-11-30 17:24:00,58.5,46.8,30.18,ENE,78,0.0,3.6,65,0.00,,---,0.00,VWS V14.01,2013-11-30 22:24:00,
2013-11-30 17:29:00,58.5,46.8,30.18,NNE,15,3.6,3.6,65,0.00,,---,0.00,VWS V14.01,2013-11-30 22:29:00,
2013-11-30 17:34:00,58.3,46.6,30.18,East,81,3.1,3.1,65,0.00,,---,0.00,VWS V14.01,2013-11-30 22:34:00,
2013-11-30 17:39:00,58.3,46.6,30.18,North,4,6.7,6.7,65,0.00,,---,0.00,VWS V14.01,2013-11-30 22:39:00,
2013-11-30 17:44:00,58.1,46.4,30.18,North,3,6.3,6.3,65,0.00,,---,0.00,VWS V14.01,2013-11-30 22:44:00,
2013-11-30 17:49:00,58.1,46.4,30.18,ENE,61,2.2,3.6,65,0.00,,---,0.00,VWS V14.01,2013-11-30 22:49:00,
2013-11-30 17:54:00,58.1,46.8,30.18,West,265,3.1,3.1,66,0.00,,---,0.00,VWS V14.01,2013-11-30 22:54:00,
2013-11-30 17:59:00,57.9,47.0,30.18,NNW,344,7.6,7.6,67,0.00,,---,0.00,VWS V14.01,2013-11-30 22:59:00,
2013-11-30 18:04:00,57.7,46.5,30.18,North,0,3.1,3.1,66,0.00,,---,0.00,VWS V14.01,2013-11-30 23:04:00,
2013-11-30 18:09:00,57.7,46.5,30.18,ENE,69,0.0,2.2,66,0.00,,---,0.00,VWS V14.01,2013-11-30 23:09:00,
2013-11-30 18:14:00,57.6,46.7,30.18,North,7,4.0,6.3,67,0.00,,---,0.00,VWS V14.01,2013-11-30 23:14:00,
2013-11-30 18:19:00,57.4,46.9,30.18,NE,51,3.1,3.1,68,0.00,,---,0.00,VWS V14.01,2013-11-30 23:19:00,
2013-11-30 18:24:00,57.2,46.8,30.18,NE,52,3.1,4.0,68,0.00,,---,0.00,VWS V14.01,2013-11-30 23:24:00,
2013-11-30 18:29:00,57.2,46.8,30.18,WSW,249,0.0,0.0,68,0.00,,---,0.00,VWS V14.01,2013-11-30 23:29:00,
2013-11-30 18:34:00,57.0,46.6,30.18,ENE,74,0.0,0.0,68,0.00,,---,0.00,VWS V14.01,2013-11-30 23:34:00,
2013-11-30 18:39:00,57.0,46.6,30.18,North,357,0.0,0.0,68,0.00,,---,0.00,VWS V14.01,2013-11-30 23:39:00,
2013-11-30 18:44:00,57.0,46.6,30.18,ESE,104,2.7,4.5,68,0.00,,---,0.00,VWS V14.01,2013-11-30 23:44:00,
2013-11-30 18:49:00,57.0,46.6,30.18,West,267,2.7,2.7,68,0.00,,---,0.00,VWS V14.01,2013-11-30 23:49:00,
2013-11-30 18:54:00,56.8,46.8,30.18,NW,313,5.4,5.4,69,0.00,,---,0.00,VWS V14.01,2013-11-30 23:54:00,
2013-11-30 18:59:00,56.8,46.8,30.18,NE,35,3.1,3.1,69,0.00,,---,0.00,VWS V14.01,2013-11-30 23:59:00,
2013-11-30 19:04:00,56.8,46.8,30.18,WNW,287,0.0,0.0,69,0.00,,---,0.00,VWS V14.01,2013-12-01 00:04:00,
2013-11-30 19:09:00,56.7,46.6,30.18,NW,306,2.7,5.4,69,0.00,,---,0.00,VWS V14.01,2013-12-01 00:09:00,
2013-11-30 19:14:00,56.7,46.6,30.18,ENE,60,0.0,0.0,69,0.00,,---,0.00,VWS V14.01,2013-12-01 00:14:00,
2013-11-30 19:19:00,56.7,46.6,30.18,North,357,2.7,2.7,69,0.00,,---,0.00,VWS V14.01,2013-12-01 00:19:00,
2013-11-30 19:24:00,56.7,46.6,30.18,ESE,112,0.0,0.0,69,0.00,,---,0.00,VWS V14.01,2013-12-01 00:24:00,
2013-11-30 19:29:00,56.7,47.0,30.18,ENE,74,3.6,4.0,70,0.00,,---,0.00,VWS V14.01,2013-12-01 00:29:00,
2013-11-30 19:34:00,56.7,47.0,30.18,NNE,22,2.7,3.1,70,0.00,,---,0.00,VWS V14.01,2013-12-01 00:34:00,
2013-11-30 19:39:00,56.7,47.0,30.18,ENE,72,2.7,3.1,70,0.00,,---,0.00,VWS V14.01,2013-12-01 00:39:00,
2013-11-30 19:44:00,56.7,47.0,30.18,ESE,116,0.0,0.0,70,0.00,,---,0.00,VWS V14.01,2013-12-01 00:44:00,
2013-11-30 19:49:00,56.7,47.0,30.18,NNW,346,2.7,4.0,70,0.00,,---,0.00,VWS V14.01,2013-12-01 00:49:00,
2013-11-30 19:54:00,56.7,47.0,30.18,NNW,337,0.0,0.0,70,0.00,,---,0.00,VWS V14.01,2013-12-01 00:54:00,
2013-11-30 19:59:00,56.7,47.0,30.18,NNW,343,3.6,3.6,70,0.00,,---,0.00,VWS V14.01,2013-12-01 00:59:00,
2013-11-30 20:04:00,56.7,47.4,30.18,North,353,2.2,2.2,71,0.00,,---,0.00,VWS V14.01,2013-12-01 01:04:00,
2013-11-30 20:09:00,56.7,47.0,30.18,NE,36,0.0,0.0,70,0.00,,---,0.00,VWS V14.01,2013-12-01 01:09:00,
2013-11-30 20:14:00,56.7,47.0,30.18,NNE,32,0.0,0.0,70,0.00,,---,0.00,VWS V14.01,2013-12-01 01:14:00,
2013-11-30 20:19:00,56.7,47.0,30.18,North,4,0.0,0.0,70,0.00,,---,0.00,VWS V14.01,2013-12-01 01:19:00,
2013-11-30 20:24:00,56.7,47.0,30.18,NNE,15,0.0,0.0,70,0.00,,---,0.00,VWS V14.01,2013-12-01 01:24:00,
2013-11-30 20:29:00,56.7,47.0,30.18,ENE,64,0.0,0.0,70,0.00,,---,0.00,VWS V14.01,2013-12-01 01:29:00,
2013-11-30 20:34:00,56.7,47.4,30.18,NNE,18,0.0,0.0,71,0.00,,---,0.00,VWS V14.01,2013-12-01 01:34:00,
2013-11-30 20:39:00,56.5,47.2,30.18,East,101,0.0,0.0,71,0.00,,---,0.00,VWS V14.01,2013-12-01 01:39:00,
2013-11-30 20:43:00,56.5,47.2,30.18,NE,38,3.1,5.4,71,0.00,,---,0.00,VWS V14.01,2013-12-01 01:43:00,
2013-11-30 20:48:00,56.5,47.2,30.18,NW,313,0.0,0.0,71,0.00,,---,0.00,VWS V14.01,2013-12-01 01:48:00,
2013-11-30 20:53:00,56.3,47.0,30.18,NNE,20,0.0,0.0,71,0.00,,---,0.00,VWS V14.01,2013-12-01 01:53:00,
2013-11-30 20:58:00,56.3,47.4,30.18,NW,305,0.0,0.0,72,0.00,,---,0.00,VWS V14.01,2013-12-01 01:58:00,
2013-11-30 21:03:00,56.3,47.4,30.18,SSW,200,2.2,2.2,72,0.00,,---,0.00,VWS V14.01,2013-12-01 02:03:00,
2013-11-30 21:08:00,56.1,47.2,30.18,NNE,16,3.1,5.4,72,0.00,,---,0.00,VWS V14.01,2013-12-01 02:08:00,
2013-11-30 21:13:00,56.1,47.2,30.18,North,353,0.0,0.0,72,0.00,,---,0.00,VWS V14.01,2013-12-01 02:13:00,
2013-11-30 21:18:00,56.1,47.2,30.18,WSW,256,0.0,0.0,72,0.00,,---,0.00,VWS V14.01,2013-12-01 02:18:00,
2013-11-30 21:23:00,56.1,47.2,30.18,North,353,0.0,0.0,72,0.00,,---,0.00,VWS V14.01,2013-12-01 02:23:00,
2013-11-30 21:28:00,56.1,47.2,30.18,NE,49,3.1,4.0,72,0.00,,---,0.00,VWS V14.01,2013-12-01 02:28:00,
2013-11-30 21:33:00,56.1,47.2,30.15,NNE,22,0.0,0.0,72,0.00,,---,0.00,VWS V14.01,2013-12-01 02:33:00,
2013-11-30 21:38:00,56.1,47.2,30.15,West,259,2.7,3.1,72,0.00,,---,0.00,VWS V14.01,2013-12-01 02:38:00,
2013-11-30 21:43:00,56.1,47.2,30.15,NW,320,0.0,0.0,72,0.00,,---,0.00,VWS V14.01,2013-12-01 02:43:00,
2013-11-30 21:48:00,56.3,47.4,30.15,NE,40,0.0,0.0,72,0.00,,---,0.00,VWS V14.01,2013-12-01 02:48:00,
2013-11-30 21:53:00,56.3,47.4,30.15,West,271,0.0,0.0,72,0.00,,---,0.00,VWS V14.01,2013-12-01 02:53:00,
2013-11-30 21:58:00,56.1,47.2,30.15,NNW,348,0.0,0.0,72,0.00,,---,0.00,VWS V14.01,2013-12-01 02:58:00,
2013-11-30 22:03:00,56.3,47.8,30.15,WSW,240,0.0,0.0,73,0.00,,---,0.00,VWS V14.01,2013-12-01 03:03:00,
2013-11-30 22:08:00,56.3,47.8,30.15,WNW,292,4.0,4.0,73,0.00,,---,0.00,VWS V14.01,2013-12-01 03:08:00,
2013-11-30 22:13:00,56.3,47.8,30.15,NE,51,0.0,0.0,73,0.00,,---,0.00,VWS V14.01,2013-12-01 03:13:00,
2013-11-30 22:18:00,56.3,47.8,30.15,NNE,33,3.6,4.5,73,0.00,,---,0.00,VWS V14.01,2013-12-01 03:18:00,
2013-11-30 22:23:00,56.3,47.8,30.15,SW,233,0.0,0.0,73,0.00,,---,0.00,VWS V14.01,2013-12-01 03:23:00,
2013-11-30 22:28:00,56.3,47.8,30.15,NE,43,0.0,0.0,73,0.00,,---,0.00,VWS V14.01,2013-12-01 03:28:00,
2013-11-30 22:33:00,56.5,47.9,30.15,NE,44,0.0,0.0,73,0.00,,---,0.00,VWS V14.01,2013-12-01 03:33:00,
2013-11-30 22:38:00,56.5,47.9,30.15,West,265,0.0,0.0,73,0.00,,---,0.00,VWS V14.01,2013-12-01 03:38:00,
2013-11-30 22:43:00,56.5,47.9,30.15,North,6,0.0,2.2,73,0.00,,---,0.00,VWS V14.01,2013-12-01 03:43:00,
2013-11-30 22:48:00,56.5,47.9,30.15,WSW,239,0.0,0.0,73,0.00,,---,0.00,VWS V14.01,2013-12-01 03:48:00,
2013-11-30 22:53:00,56.7,48.1,30.15,NE,43,0.0,0.0,73,0.00,,---,0.00,VWS V14.01,2013-12-01 03:53:00,
2013-11-30 22:58:00,56.7,48.1,30.15,NW,307,0.0,0.0,73,0.00,,---,0.00,VWS V14.01,2013-12-01 03:58:00,
2013-11-30 23:03:00,56.7,48.1,30.15,NE,52,0.0,2.2,73,0.00,,---,0.00,VWS V14.01,2013-12-01 04:03:00,
2013-11-30 23:08:00,56.7,48.1,30.15,North,8,0.0,2.2,73,0.00,,---,0.00,VWS V14.01,2013-12-01 04:08:00,
2013-11-30 23:13:00,56.7,48.1,30.15,NE,41,0.0,0.0,73,0.00,,---,0.00,VWS V14.01,2013-12-01 04:13:00,
2013-11-30 23:18:00,56.7,48.5,30.15,WNW,303,0.0,0.0,74,0.00,,---,0.00,VWS V14.01,2013-12-01 04:18:00,
2013-11-30 23:23:00,56.8,48.7,30.15,NNW,329,0.0,0.0,74,0.00,,---,0.00,VWS V14.01,2013-12-01 04:23:00,
2013-11-30 23:28:00,56.7,48.5,30.15,NW,318,0.0,0.0,74,0.00,,---,0.00,VWS V14.01,2013-12-01 04:28:00,
2013-11-30 23:33:00,56.8,48.7,30.12,NNE,19,0.0,0.0,74,0.00,,---,0.00,VWS V14.01,2013-12-01 04:33:00,
2013-11-30 23:38:00,56.8,48.7,30.12,North,0,3.1,3.1,74,0.00,,---,0.00,VWS V14.01,2013-12-01 04:38:00,
2013-11-30 23:43:00,56.8,48.7,30.12,NNE,19,0.0,0.0,74,0.00,,---,0.00,VWS V14.01,2013-12-01 04:43:00,
2013-11-30 23:48:00,56.8,48.7,30.12,NNE,30,0.0,0.0,74,0.00,,---,0.00,VWS V14.01,2013-12-01 04:48:00,
2013-11-30 23:53:00,56.8,48.7,30.12,NNE,31,0.0,0.0,74,0.00,,---,0.00,VWS V14.01,2013-12-01 04:53:00,
2013-11-30 23:58:00,56.8,48.7,30.12,North,0,0.0,0.0,74,0.00,,---,0.00,VWS V14.01,2013-12-01 04:58:00,